Regional Weather Roundup
Issued by NWS

Home | Current Version | Previous Version | Graphics & Text | Print | Product List | Glossary On
Versions: 1 2 3 4 5 6 7 8 9 10 11 12 13 14 15 16 17 18 19 20 21 22 23 24 25 26 27 28 29 30 31 32 33 34 35 36 37 38 39 40 41 42 43 44 45 46 47 48 49 50
000
ASUS43 KLOT 202110
RWRIL

ILLINOIS REGIONAL WEATHER ROUNDUP
NATIONAL WEATHER SERVICE CHICAGO/ROMEOVILLE IL
300 PM CST SAT DEC 20 2014

NOTE: "FAIR" INDICATES FEW OR NO CLOUDS BELOW 12,000 FEET WITH NO
SIGNIFICANT WEATHER AND/OR OBSTRUCTIONS TO VISIBILITY.

* THESE STATIONS ARE NOT UNDER NWS QUALITY CONTROL. THEY ALSO MAY NOT
  REPORT WEATHER SUCH AS PRECIPITATION OR FOG.

ILZ001-002-007-009-015-016-024-202200-
NORTHWEST ILLINOIS

CITY           SKY/WX    TMP DP  RH WIND       PRES   REMARKS
MOLINE         CLOUDY    34  27  75 SE6       30.20S HAZE    WCI  29
STERLING*      CLOUDY    34  25  69 SE6       30.22S WCI  29
SAVANNA*       CLOUDY    33  26  73 SE6       30.21S WCI  28
$$

ILZ003-004-008-010-011-017-018-202200-
NORTH CENTRAL ILLINOIS

CITY           SKY/WX    TMP DP  RH WIND       PRES   REMARKS
ROCKFORD       CLOUDY    31  24  75 S6        30.24S WCI  25
FREEPORT*      CLOUDY    31  25  80 SE6       30.23S WCI  25
ROCHELLE*      CLOUDY    31  26  81 S5        30.23S WCI  26
DE KALB*       CLOUDY    30  25  81 S7        30.23R WCI  23
PERU*          CLOUDY    34  28  79 S6        30.23F WCI  29
$$

ILZ005-006-012>014-019>023-202200-
NORTHEAST ILLINOIS

CITY           SKY/WX    TMP DP  RH WIND       PRES   REMARKS
CHICAGO-OHARE  FLURRIES  33  24  69 S6        30.23S WCI  28
CHICAGO-MIDWAY FLURRIES  34  25  69 SW6       30.24S WCI  29
AURORA         CLOUDY    33  25  72 S7        30.24R HAZE    WCI  27
LANSING*       CLOUDY    33  26  77 SW3       30.25S
JOLIET*        CLOUDY    33  25  75 SW3       30.25R
WAUKEGAN       CLOUDY    32  24  72 SW3       30.23S
DUPAGE AIRPORT CLOUDY    33  24  69 S6        30.23R WCI  28
KANKAKEE*      CLOUDY    33  27  76 S5        30.26S WCI  29
WHEELING       CLOUDY    33  23  66 S5        30.25S WCI  29
MORRIS*        CLOUDY    33  29  83 S5        30.24R WCI  29
ROMEOVILLE*    CLOUDY    33  25  73 SW5       30.25R WCI  28
NORTHERLY ISL    N/A     33  24  70 W2          N/A
$$

LMZ740>746-202200-
SOUTHERN LAKE MICHIGAN

STATION/POSITION SKY/WX   TEMP    WIND        PRES    VSBY  WAVE
                          AIR SEA DIR/SP/G                  HT/PER
                          (F)     (DEG/KT/KT) (MB)    (MI)  (FT/S)
WAUKEGAN HARBOR            32     260/  3/  4   N/A
HARRISON CRIB              33     230/  9/ 11   N/A
BURNHAM HARBOR             33     200/  3/ 10   N/A
CALUMET HARBOR             33     190/  6/ 10 1022.9F
$$

ILZ025>027-034>036-040-047-049-050-058-095>099-202200-
WEST-CENTRAL ILLINOIS

CITY           SKY/WX    TMP DP  RH WIND       PRES   REMARKS
QUINCY         CLOUDY    37  33  85 S6        30.19R FOG     WCI  32
GALESBURG*     CLOUDY    34  30  84 SE5       30.20R WCI  30
MACOMB*        CLOUDY    36  32  87 S7        30.22S FOG     WCI  30
JACKSONVILLE*  CLOUDY    40  33  77 S5        30.21R
PITTSFIELD*    CLOUDY    37  34  90 SE5       30.21R FOG     WCI  33
$$

ILZ028>032-037-038-041>044-048-051>054-059>061-202200-
CENTRAL ILLINOIS

CITY           SKY/WX    TMP DP  RH WIND       PRES   REMARKS
PONTIAC        CLOUDY    34  29  82 S6        30.25S WCI  29
BLOOMINGTON    PTSUNNY   33  29  86 S6        30.24S WCI  27
DECATUR        PTSUNNY   36  26  67 S7        30.24S WCI  30
PEORIA         CLOUDY    37  27  67 S7        30.22F WCI  32
LACON*         CLOUDY    34  26  72 S7        30.22S WCI  28
LINCOLN*       CLOUDY    37  30  77 SE5       30.24S WCI  33
SPRINGFIELD    CLOUDY    38  30  73 SE3       30.22F
TAYLORVILLE    CLOUDY    36  30  80 SE6       30.23S WCI  31
$$

ILZ033-039-045-046-055>057-062-063-202200-
EAST-CENTRAL ILLINOIS

CITY           SKY/WX    TMP DP  RH WIND       PRES   REMARKS
CHAMPAIGN      CLOUDY    34  26  72 SE6       30.25S WCI  29
DANVILLE*      CLOUDY    33  26  76 CALM      30.23S
RANTOUL*       CLOUDY    35  28  77 S5        30.24S WCI  31
MATTOON        CLOUDY    35  25  66 S5        30.24R WCI  31
PARIS*         CLOUDY    34  28  79 CALM      30.27R
$$

ILZ079-100>102-202200-
SOUTHWEST ILLINOIS

CITY           SKY/WX    TMP DP  RH WIND       PRES   REMARKS
BELLEVILLE     CLOUDY    41  34  75 SE5       30.23R
CAHOKIA*       CLOUDY    43  34  70 VRB3      30.23S
SPARTA*        CLOUDY    41  33  73 CALM      30.24S
$$

ILZ064>066-069>071-074>076-080>082-084>086-088>090-092>094-202200-
SOUTH-CENTRAL ILLINOIS

CITY           SKY/WX    TMP DP  RH WIND       PRES   REMARKS
CARBONDALE     CLOUDY    43  30  60 CALM      30.25R
CAIRO*         CLOUDY    46  32  59 CALM      30.25S
EFFINGHAM*     MOSUNNY   38  26  61 E6        30.27R WCI  33
MARION         PTSUNNY   41  30  65 S5        30.25F
MT. VERNON     CLOUDY    39  27  60 SE5       30.26S
CENTRALIA*     CLOUDY    39  29  67 SE5       30.25R
SALEM*         CLOUDY    41  29  62 S5        30.25R
METROPOLIS*    SUNNY     45  31  60 CALM      30.24S
$$

ILZ067-068-072-073-078-083-087-091-202200-
SOUTHEAST ILLINOIS

CITY           SKY/WX    TMP DP  RH WIND       PRES   REMARKS
LAWRENCEVILLE  CLOUDY    36  27  69 CALM      30.28R
FLORA*         SUNNY     37  28  68 SE5       30.27S WCI  34
FAIRFIELD*     SUNNY     38  27  63 CALM      30.26R
HARRISBURG*    CLOUDY    40  28  62 NE5       30.27S
ROBINSON*      CLOUDY    36  28  72 E3        30.28R
CARMI*         SUNNY     41  30  64 CALM      30.27R
$$

ABBREVIATIONS USED IN REMARKS
   TC - TEMPERATURE IN CELSIUS
  WCI - WIND CHILL INDEX
   HX - HEAT INDEX
  VSB - VISIBILITY
$$



USA.gov is the U.S. government's official web portal to all federal, state and local government web resources and services.